Location: Jordan Lake
(35.7395°N, 79.0242°W)
Time: 10:20:55
(UTC-05:00)

LightSail 2 - Pass Details

Date: 10 December 2019
Orbit: 704 x 720 km, 24.0° (Epoch: 21 January)

Event Time Altitude Azimuth Distance (km) Brightness Sun altitude
Rises 17:42:03 0° 251° (WSW) 3,100 11.0 -8.1°
Reaches altitude 10° 17:45:20 10° 230° (SW) 2,175 9.0 -8.7°
Maximum altitude 17:48:26 16° 193° (SSW) 1,788 7.7 -9.3°
Drops below altitude 10° 17:51:32 10° 155° (SSE) 2,166 7.6 -9.8°
Sets 17:54:49 0° 134° (SE) 3,079 8.2 -10.5°
